EW9490 Weather Reports


Display with metric or nautical units.
time (UTC)temp
F
wind
direction
speed
MPH
gust
MPH
rain 1hr
in
rain 24hr
in
rain mn
in
humidity
%
barometer
mb
20260906130018 67 343 2.0 7.0 0.00 0.02 0.00 84 1014.1
20260906124514 67 300 3.0 6.0 0.00 0.02 0.00 85 1014.2
20260906123027 66 301 2.0 5.0 0.00 0.11 0.00 86 1013.9
20260906121510 66 305 1.0 6.0 0.00 0.11 0.00 87 1013.7
20260906120008 66 263 0.0 5.0 0.00 0.11 0.00 87 1013.6
20260906114506 66 319 1.0 5.0 0.00 0.11 0.00 87 1013.6
20260906113004 66 350 2.0 7.0 0.00 0.23 0.00 87 1013.3
20260906111605 66 300 2.0 6.0 0.00 0.23 0.00 88 1013.0
20260906110156 66 305 2.0 6.0 0.00 0.23 0.00 89 1012.7
20260906104555 67 355 2.0 6.0 0.00 0.23 0.00 89 1012.6
20260906103104 67 279 4.0 6.0 0.00 0.28 0.00 90 1012.5
20260906101549 67 309 3.0 6.0 0.00 0.28 0.00 90 1012.3
20260906100049 68 4 1.0 7.0 0.00 0.28 0.00 90 1012.3
20260906094544 68 314 2.0 6.0 0.00 0.28 0.00 89 1012.2
20260906093046 69 300 0.0 0.0 0.00 0.28 0.00 89 1012.2
20260906091539 69 315 2.0 6.0 0.00 0.28 0.00 87 1012.3
20260906090055 70 304 1.0 5.0 0.00 0.28 0.00 88 1012.1
20260906084536 70 338 2.0 4.0 0.00 0.28 0.00 88 1012.1
20260906083038 70 293 1.0 6.0 0.00 0.28 0.00 89 1012.1
20260906081531 70 335 2.0 6.0 0.00 0.28 0.00 89 1012.2
20260906080030 71 319 2.0 6.0 0.00 0.28 0.00 90 1012.1
20260906074529 71 304 1.0 4.0 0.00 0.28 0.00 90 1011.9
20260906073030 71 315 3.0 6.0 0.00 0.28 0.00 91 1011.9
20260906071525 71 308 1.0 6.0 0.00 0.28 0.00 90 1011.8
20260906070034 72 355 2.0 6.0 0.00 0.28 0.00 92 1011.9
20260906064524 72 299 2.0 4.0 0.00 0.28 0.00 93 1012.0
20260906063039 72 287 0.0 3.0 0.00 0.28 0.00 94 1012.0
20260906061521 72 287 0.0 4.0 0.00 0.28 0.00 94 1012.1
20260906060020 72 271 0.0 3.0 0.00 0.28 0.00 94 1012.1
20260906054520 71 254 0.0 1.0 0.00 0.28 0.00 95 1011.9
20260906053020 71 254 0.0 0.0 0.00 0.28 0.00 95 1011.9
20260906051532 71 254 0.0 0.0 0.00 0.28 0.00 95 1011.8
20260906050017 71 254 0.0 0.0 0.00 0.28 0.00 95 1011.9
20260906044515 71 254 0.0 0.0 0.00 0.28 0.00 94 1011.7
20260906043016 71 254 0.0 0.0 0.00 0.28 0.00 94 1011.5
20260906041511 72 254 0.0 0.0 0.00 0.28 0.00 93 1011.7
20260906040022 72 254 0.0 0.0 0.00 0.28 0.00 93 1011.7
20260906034507 72 254 0.0 2.0 0.00 0.28 0.00 92 1011.7
20260906033005 72 237 0.0 0.0 0.00 0.28 0.00 91 1011.7
20260906031501 73 237 0.0 0.0 0.00 0.28 0.00 91 1011.9
20260906030059 73 237 0.0 0.0 0.00 0.28 0.00 89 1012.0
20260906024556 74 237 0.0 0.0 0.00 0.28 0.00 89 1011.9
20260906023056 74 293 0.0 4.0 0.00 0.28 0.00 88 1011.8
20260906021549 75 298 1.0 4.0 0.00 0.28 0.00 87 1012.0
20260906020053 75 254 0.0 1.0 0.00 0.28 0.00 87 1011.7
20260906014543 75 239 0.0 3.0 0.00 0.28 0.00 86 1011.3
20260906013058 75 251 0.0 2.0 0.00 0.28 0.28 87 1011.3
20260906011546 75 251 0.0 1.0 0.00 0.28 0.28 87 1010.9
20260906010038 76 251 0.0 0.0 0.00 0.28 0.28 85 1010.4
20260906004538 77 251 0.0 0.0 0.00 0.28 0.28 84 1010.6
20260906003038 78 251 0.0 0.0 0.00 0.28 0.28 80 1010.8
20260906001537 79 251 0.0 0.0 0.00 0.28 0.28 77 1010.6
20260906000005 80 251 0.0 0.0 0.00 0.28 0.28 75 1010.8
20260905234507 81 251 0.0 2.0 0.00 0.28 0.28 72 1010.6
20260905233004 83 251 0.0 2.0 0.00 0.28 0.28 69 1010.7
20260905231501 85 228 0.0 3.0 0.00 0.28 0.28 66 1010.3
20260905230105 85 244 0.0 5.0 0.00 0.28 0.28 65 1010.2
20260905224610 85 255 0.0 3.0 0.00 0.28 0.28 65 1010.5
20260905223057 85 249 2.0 7.0 0.00 0.28 0.28 64 1010.6
20260905221555 85 233 3.0 7.0 0.00 0.28 0.28 63 1010.5
20260905220053 85 274 3.0 5.0 0.00 0.28 0.28 63 1010.4
20260905214544 85 249 1.0 8.0 0.00 0.28 0.28 60 1010.5
20260905213039 85 300 2.0 5.0 0.00 0.28 0.28 59 1010.2
20260905211539 86 282 1.0 6.0 0.00 0.28 0.28 58 1010.2
20260905210050 85 223 0.0 3.0 0.00 0.28 0.28 62 1010.1
20260905204538 84 265 1.0 5.0 0.00 0.28 0.28 63 1010.4
20260905203041 85 258 0.0 5.0 0.00 0.28 0.28 62 1010.4
20260905201535 85 255 0.0 8.0 0.00 0.28 0.28 61 1010.7
20260905200033 86 241 0.0 6.0 0.00 0.28 0.28 60 1010.9
20260905194532 87 191 3.0 7.0 0.00 0.28 0.28 58 1010.8
20260905193028 87 187 1.0 6.0 0.00 0.28 0.28 59 1010.9
20260905191528 85 257 0.0 8.0 0.00 0.28 0.28 64 1011.2
20260905190024 85 253 1.0 5.0 0.00 0.28 0.28 62 1011.5
20260905184523 86 189 0.0 5.0 0.00 0.28 0.28 61 1011.2
20260905183051 85 201 2.0 5.0 0.00 0.32 0.28 63 1011.5
20260905181549 85 110 0.0 3.0 0.00 0.32 0.28 61 1011.9
20260905180043 84 261 0.0 5.0 0.00 0.32 0.28 65 1011.9
20260905174541 84 286 0.0 5.0 0.00 0.32 0.28 66 1012.1
20260905173039 83 87 1.0 9.0 0.00 0.32 0.28 69 1012.2
20260905171553 82 112 0.0 6.0 0.00 0.32 0.28 71 1012.3
20260905170032 82 171 1.0 8.0 0.00 0.32 0.28 73 1012.3
20260905164530 81 134 2.0 8.0 0.00 0.32 0.28 74 1012.2
20260905163034 81 179 5.0 8.0 0.00 0.32 0.28 71 1012.6
20260905161525 80 193 1.0 6.0 0.00 0.32 0.28 75 1012.9
20260905160019 79 40 0.0 4.0 0.00 0.32 0.28 79 1013.0
20260905154516 77 190 1.0 3.0 0.00 0.32 0.28 81 1012.9
20260905153014 76 298 0.0 3.0 0.00 0.32 0.28 83 1013.0
20260905151513 75 311 1.0 3.0 0.00 0.32 0.28 85 1013.0
20260905150046 74 360 2.0 9.0 0.00 0.32 0.28 88 1013.1
20260905144541 73 328 5.0 8.0 0.00 0.32 0.28 90 1013.1
20260905143041 73 298 0.0 7.0 0.00 0.32 0.28 92 1013.2
20260905141537 72 314 0.0 6.0 0.00 0.32 0.28 93 1012.9
20260905140036 72 277 0.0 9.0 0.00 0.32 0.28 94 1012.0
20260905134533 71 225 5.0 14.0 0.01 0.32 0.28 95 1010.0
20260905133029 71 210 1.0 4.0 0.03 0.32 0.28 96 1011.8
20260905131535 70 227 0.0 2.0 0.05 0.32 0.28 96 1012.3